DB0TGO-10 Weather Reports


time (UTC)temp
C
wind
direction
speed
KPH
gust
KPH
rain 1hr
cm
rain 24hr
cm
rain mn
cm
humidity
%
barometer
mb
20260507155922 11 68 3.2 9.7 0.00 0.00 0.00 76 1017.0
20260507150819 11 90 3.2 8.0 0.00 0.00 0.00 76 1016.7
20260507141901 11 22 1.6 8.0 0.00 0.00 0.00 74 1016.4
20260507132559 11 90 3.2 9.7 0.00 0.00 0.00 73 1016.2
20260507094756 8 90 6.4 11.3 0.00 0.28 0.00 87 1015.1
20260507085245 8 90 4.8 12.9 0.00 0.69 0.00 83 1014.5
20260507075505 8 22 6.4 8.0 0.00 1.47 0.00 86 1013.9
20260507070725 8 45 8.0 20.9 0.00 1.60 0.00 85 1013.4
20260507061850 7 22 6.4 16.1 0.00 1.65 0.00 87 1013.1
20260507052254 7 90 8.0 17.7 0.00 1.80 0.00 89 1012.5
20260507043003 7 45 8.0 14.5 0.00 2.11 0.00 90 1012.0
20260507033642 7 45 4.8 8.0 0.00 2.49 0.00 90 1011.6
20260507024935 7 22 6.4 9.7 0.00 2.64 0.00 91 1011.4
20260507010258 7 68 4.8 9.7 0.00 2.77 0.00 90 1011.0
20260507001325 7 45 8.0 20.9 0.00 2.77 0.00 90 1010.5
20260506232009 8 22 8.0 11.3 0.00 2.77 0.00 92 1010.5
20260506222435 10 22 4.8 12.9 0.00 2.77 0.00 92 1009.7
20260506213545 10 22 3.2 9.7 0.00 2.77 2.77 92 1009.7
20260506204758 10 45 6.4 11.3 0.00 2.77 2.77 92 1009.3
20260506195349 10 22 4.8 14.5 0.00 2.77 2.77 94 1009.3
20260506180545 11 45 4.8 11.3 0.00 2.77 2.77 91 1008.4